RYR6125 EDDS-LIRA

Flight info

Callsign RYR6125
Flight time 1h 18m
Altitude 33000
Route ROTWE5B ROTWE Y126 TUBLO N850 ODINA/N0380F190 M727 SRN L153 OSBUL L995 AMTEL Y510 GITOD
Aircraft A320/M-SDE3FGHIRWY/LB1

Departure

Time 2026-05-05 14:40
Airport Stuttgart Airport (EDDS)

Arrival

Time 2026-05-05 15:58
Airport Ciampino–G. B. Pastine International Airport (LIRA)
Time Latitude Longitude Altitude Speed Heading
2026-05-05 13:56 48.68785 9.19619 1289 ft 0 kts 164°
2026-05-05 14:00 48.68807 9.19732 1285 ft 0 kts 164°
2026-05-05 14:31 48.68806 9.19732 1285 ft 1 kts 164°
2026-05-05 14:32 48.68784 9.19741 1285 ft 6 kts 164°
2026-05-05 14:32 48.68750 9.19792 1287 ft 9 kts 94°
2026-05-05 14:32 48.68772 9.19894 1287 ft 12 kts 59°
2026-05-05 14:32 48.68819 9.19985 1285 ft 10 kts 52°
2026-05-05 14:33 48.68846 9.20077 1285 ft 11 kts 73°
2026-05-05 14:33 48.68873 9.20222 1285 ft 17 kts 74°
2026-05-05 14:33 48.68909 9.20413 1288 ft 21 kts 74°
2026-05-05 14:33 48.68952 9.20636 1289 ft 24 kts 74°
2026-05-05 14:34 48.69000 9.20890 1285 ft 26 kts 74°
2026-05-05 14:34 48.69051 9.21161 1288 ft 27 kts 73°
2026-05-05 14:34 48.69105 9.21440 1285 ft 28 kts 74°
2026-05-05 14:34 48.69158 9.21724 1285 ft 28 kts 74°
2026-05-05 14:35 48.69213 9.22013 1285 ft 29 kts 73°
2026-05-05 14:35 48.69269 9.22308 1287 ft 29 kts 74°
2026-05-05 14:35 48.69325 9.22605 1287 ft 30 kts 74°
2026-05-05 14:35 48.69383 9.22907 1289 ft 30 kts 73°
2026-05-05 14:36 48.69441 9.23210 1288 ft 30 kts 74°
2026-05-05 14:36 48.69497 9.23510 1287 ft 27 kts 74°
2026-05-05 14:36 48.69547 9.23764 1285 ft 19 kts 74°
2026-05-05 14:36 48.69581 9.23948 1285 ft 16 kts 74°
2026-05-05 14:37 48.69610 9.24106 1288 ft 14 kts 77°
2026-05-05 14:37 48.69583 9.24231 1285 ft 11 kts 118°
2026-05-05 14:37 48.69532 9.24300 1285 ft 9 kts 162°
2026-05-05 14:37 48.69476 9.24324 1289 ft 8 kts 163°
2026-05-05 14:38 48.69430 9.24345 1285 ft 6 kts 163°
2026-05-05 14:38 48.69394 9.24333 1285 ft 5 kts 235°
2026-05-05 14:38 48.69387 9.24300 1285 ft 0 kts 255°
2026-05-05 14:39 48.69356 9.24133 1287 ft 51 kts 254°
2026-05-05 14:39 48.69192 9.23270 1286 ft 116 kts 254°
2026-05-05 14:39 48.68920 9.21839 1308 ft 162 kts 253°
2026-05-05 14:39 48.68609 9.20172 1857 ft 165 kts 257°
2026-05-05 14:40 48.68312 9.18523 2549 ft 163 kts 254°
2026-05-05 14:40 48.68014 9.16893 3104 ft 160 kts 254°
2026-05-05 14:40 48.67717 9.15268 3573 ft 160 kts 253°
2026-05-05 14:40 48.67415 9.13636 4036 ft 164 kts 252°
2026-05-05 14:41 48.67079 9.11880 4296 ft 183 kts 252°
2026-05-05 14:41 48.66709 9.09934 4517 ft 204 kts 252°
2026-05-05 14:41 48.66291 9.07759 4778 ft 226 kts 252°
2026-05-05 14:41 48.65831 9.05372 5164 ft 246 kts 251°
2026-05-05 14:42 48.65331 9.02811 5770 ft 258 kts 251°
2026-05-05 14:42 48.64821 9.00192 6600 ft 261 kts 251°
2026-05-05 14:42 48.64310 8.97548 7422 ft 263 kts 251°
2026-05-05 14:42 48.63792 8.94878 8223 ft 266 kts 251°
2026-05-05 14:43 48.63262 8.92180 9041 ft 269 kts 251°
2026-05-05 14:43 48.62729 8.89459 9835 ft 272 kts 251°
2026-05-05 14:43 48.62150 8.86730 10324 ft 285 kts 246°
2026-05-05 14:43 48.61197 8.83984 10516 ft 306 kts 235°
2026-05-05 14:44 48.59813 8.81423 10821 ft 322 kts 226°
2026-05-05 14:44 48.58268 8.78924 11432 ft 328 kts 227°
2026-05-05 14:44 48.56710 8.76366 12112 ft 332 kts 227°
2026-05-05 14:44 48.55142 8.73776 12806 ft 336 kts 227°
2026-05-05 14:45 48.53561 8.71162 13479 ft 340 kts 228°
2026-05-05 14:45 48.51950 8.68515 14082 ft 344 kts 226°
2026-05-05 14:45 48.50114 8.66186 14661 ft 348 kts 215°
2026-05-05 14:45 48.48106 8.64110 15253 ft 351 kts 215°
2026-05-05 14:46 48.46077 8.62015 15823 ft 355 kts 214°
2026-05-05 14:46 48.44032 8.59903 16394 ft 359 kts 214°
2026-05-05 14:46 48.41960 8.57766 16954 ft 363 kts 214°
2026-05-05 14:46 48.39867 8.55609 17526 ft 366 kts 214°
2026-05-05 14:47 48.37754 8.53430 18095 ft 370 kts 214°
2026-05-05 14:47 48.35615 8.51227 18616 ft 374 kts 214°
2026-05-05 14:47 48.33464 8.49010 19113 ft 377 kts 214°
2026-05-05 14:47 48.31295 8.46776 19647 ft 379 kts 214°
2026-05-05 14:48 48.29114 8.44534 20154 ft 382 kts 214°
2026-05-05 14:48 48.26914 8.42277 20684 ft 385 kts 213°
2026-05-05 14:48 48.24691 8.40001 21202 ft 388 kts 213°
2026-05-05 14:48 48.22451 8.37708 21688 ft 391 kts 214°
2026-05-05 14:49 48.20164 8.35496 22163 ft 393 kts 207°
2026-05-05 14:49 48.17659 8.33940 22607 ft 396 kts 196°
2026-05-05 14:49 48.14947 8.33181 23054 ft 399 kts 184°
2026-05-05 14:49 48.12159 8.33297 23504 ft 402 kts 173°
2026-05-05 14:50 48.09394 8.33974 23892 ft 404 kts 171°
2026-05-05 14:50 48.06608 8.34663 24306 ft 405 kts 171°
2026-05-05 14:50 48.03819 8.35341 24691 ft 406 kts 172°
2026-05-05 14:50 48.01022 8.36010 25060 ft 408 kts 172°
2026-05-05 14:51 47.98213 8.36679 25457 ft 410 kts 172°
2026-05-05 14:51 47.95391 8.37354 25797 ft 411 kts 172°
2026-05-05 14:51 47.92559 8.38035 26139 ft 413 kts 172°
2026-05-05 14:51 47.89712 8.38720 26508 ft 415 kts 172°
2026-05-05 14:52 47.86858 8.39410 26843 ft 416 kts 172°
2026-05-05 14:52 47.84000 8.40100 27184 ft 417 kts 172°
2026-05-05 14:52 47.81130 8.40790 27510 ft 419 kts 172°
2026-05-05 14:52 47.78244 8.41480 27828 ft 421 kts 172°
2026-05-05 14:53 47.75348 8.42167 28140 ft 422 kts 172°
2026-05-05 14:53 47.72438 8.42860 28435 ft 423 kts 172°
2026-05-05 14:53 47.69526 8.43555 28746 ft 424 kts 172°
2026-05-05 14:53 47.66597 8.44180 28995 ft 426 kts 174°
2026-05-05 14:54 47.63651 8.44667 29257 ft 427 kts 175°
2026-05-05 14:54 47.60682 8.45071 29512 ft 428 kts 176°
2026-05-05 14:54 47.57742 8.45440 29759 ft 430 kts 176°
2026-05-05 14:54 47.54757 8.45821 29984 ft 431 kts 176°
2026-05-05 14:55 47.51773 8.46223 30222 ft 431 kts 175°
2026-05-05 14:55 47.48786 8.46646 30501 ft 430 kts 176°
2026-05-05 14:55 47.45807 8.47084 30745 ft 430 kts 176°
2026-05-05 14:55 47.42825 8.47528 30999 ft 430 kts 176°
2026-05-05 14:56 47.39854 8.47971 31269 ft 429 kts 176°
2026-05-05 14:56 47.36881 8.48412 31542 ft 429 kts 176°
2026-05-05 14:56 47.33913 8.48848 31800 ft 428 kts 176°
2026-05-05 14:56 47.30952 8.49282 32090 ft 427 kts 177°
2026-05-05 14:57 47.28001 8.49717 32373 ft 426 kts 177°
2026-05-05 14:57 47.25055 8.50150 32681 ft 425 kts 178°
2026-05-05 14:57 47.22120 8.50578 32840 ft 423 kts 178°
2026-05-05 14:57 47.19200 8.51006 32865 ft 420 kts 178°
2026-05-05 14:58 47.13400 8.51852 32863 ft 418 kts 178°
2026-05-05 14:58 47.07604 8.52688 32862 ft 418 kts 178°
2026-05-05 14:59 47.01820 8.53518 32871 ft 417 kts 179°
2026-05-05 14:59 46.96041 8.54348 32886 ft 416 kts 179°
2026-05-05 15:00 46.91255 8.55037 32885 ft 417 kts 179°
2026-05-05 15:00 46.84552 8.56008 32897 ft 416 kts 179°
2026-05-05 15:01 46.78794 8.56834 32914 ft 415 kts 179°
2026-05-05 15:01 46.73044 8.57654 32915 ft 414 kts 180°
2026-05-05 15:02 46.67316 8.58467 32911 ft 412 kts 180°
2026-05-05 15:02 46.61603 8.59289 32950 ft 412 kts 180°
2026-05-05 15:03 46.55938 8.60098 32973 ft 411 kts 180°
2026-05-05 15:03 46.53101 8.60494 33115 ft 409 kts 181°
2026-05-05 15:03 46.50274 8.60887 33389 ft 408 kts 181°
2026-05-05 15:04 46.47445 8.61282 33663 ft 408 kts 181°
2026-05-05 15:04 46.44627 8.61678 33935 ft 406 kts 180°
2026-05-05 15:04 46.41816 8.62078 34177 ft 406 kts 180°
2026-05-05 15:04 46.39004 8.62480 34418 ft 405 kts 180°
2026-05-05 15:05 46.33417 8.63274 34889 ft 403 kts 180°
2026-05-05 15:05 46.30612 8.63666 34983 ft 407 kts 180°
2026-05-05 15:06 46.24938 8.64460 35003 ft 410 kts 180°
2026-05-05 15:06 46.19263 8.65260 35000 ft 410 kts 181°
2026-05-05 15:07 46.13574 8.66057 35006 ft 411 kts 180°
2026-05-05 15:07 46.08903 8.67806 35004 ft 426 kts 163°
2026-05-05 15:08 46.03598 8.71839 35000 ft 433 kts 159°
2026-05-05 15:08 45.98311 8.75994 34974 ft 433 kts 159°
2026-05-05 15:09 45.93024 8.80132 34983 ft 433 kts 159°
2026-05-05 15:09 45.87731 8.84256 34989 ft 433 kts 159°
2026-05-05 15:10 45.82437 8.88367 34989 ft 432 kts 159°
2026-05-05 15:10 45.77142 8.92464 34987 ft 433 kts 159°
2026-05-05 15:11 45.71847 8.96558 34984 ft 433 kts 159°
2026-05-05 15:11 45.66551 9.00687 34988 ft 436 kts 156°
2026-05-05 15:11 45.64071 9.03255 34946 ft 445 kts 145°
2026-05-05 15:12 45.61872 9.06432 34976 ft 452 kts 139°
2026-05-05 15:12 45.57657 9.13108 34984 ft 452 kts 139°
2026-05-05 15:13 45.53453 9.19701 34988 ft 452 kts 139°
2026-05-05 15:13 45.49204 9.26332 34991 ft 452 kts 139°
2026-05-05 15:14 45.44964 9.32953 34992 ft 452 kts 139°
2026-05-05 15:14 45.40720 9.39576 35063 ft 453 kts 139°
2026-05-05 15:15 45.36466 9.46191 35053 ft 453 kts 139°
2026-05-05 15:15 45.32197 9.52794 35035 ft 454 kts 139°
2026-05-05 15:16 45.27925 9.59402 35005 ft 454 kts 139°
2026-05-05 15:16 45.23682 9.65950 34972 ft 454 kts 139°
2026-05-05 15:17 45.19404 9.72532 34947 ft 454 kts 139°
2026-05-05 15:17 45.15123 9.79127 34941 ft 455 kts 139°
2026-05-05 15:18 45.10837 9.85731 34945 ft 456 kts 139°
2026-05-05 15:18 45.06534 9.92335 34950 ft 456 kts 139°
2026-05-05 15:19 45.02215 9.98934 34940 ft 457 kts 139°
2026-05-05 15:19 44.97884 10.05536 34941 ft 458 kts 139°
2026-05-05 15:20 44.93557 10.12141 34951 ft 458 kts 139°
2026-05-05 15:20 44.89214 10.18747 34948 ft 459 kts 140°
2026-05-05 15:21 44.84853 10.25347 34952 ft 460 kts 140°
2026-05-05 15:21 44.80134 10.31243 34928 ft 447 kts 154°
2026-05-05 15:22 44.74900 10.35989 34962 ft 448 kts 154°
2026-05-05 15:22 44.69653 10.40753 34953 ft 450 kts 154°
2026-05-05 15:23 44.64394 10.45536 34965 ft 451 kts 154°
2026-05-05 15:23 44.59120 10.50329 34979 ft 452 kts 154°
2026-05-05 15:24 44.53833 10.55108 34981 ft 452 kts 154°
2026-05-05 15:24 44.48534 10.59874 34970 ft 453 kts 155°
2026-05-05 15:25 44.43247 10.64582 34979 ft 454 kts 155°
2026-05-05 15:25 44.37903 10.69322 34985 ft 455 kts 155°
2026-05-05 15:26 44.32550 10.74061 34995 ft 456 kts 155°
2026-05-05 15:26 44.27196 10.78802 35000 ft 456 kts 155°
2026-05-05 15:27 44.21834 10.83541 35011 ft 456 kts 155°
2026-05-05 15:27 44.16477 10.88271 35002 ft 456 kts 155°
2026-05-05 15:28 44.11112 10.92983 35003 ft 456 kts 155°
2026-05-05 15:28 44.05747 10.97682 34977 ft 456 kts 156°
2026-05-05 15:29 44.00344 11.02306 34975 ft 454 kts 158°
2026-05-05 15:29 43.94825 11.06523 34981 ft 452 kts 160°
2026-05-05 15:30 43.89264 11.10594 34980 ft 452 kts 160°
2026-05-05 15:30 43.83714 11.14728 34972 ft 453 kts 160°
2026-05-05 15:31 43.78174 11.18921 34981 ft 454 kts 160°
2026-05-05 15:31 43.72655 11.23114 34956 ft 455 kts 160°
2026-05-05 15:32 43.67100 11.27313 34985 ft 455 kts 160°
2026-05-05 15:32 43.61536 11.31508 34961 ft 456 kts 160°
2026-05-05 15:33 43.55951 11.35680 34968 ft 457 kts 160°
2026-05-05 15:33 43.50353 11.39850 34975 ft 458 kts 160°
2026-05-05 15:34 43.44740 11.44016 34960 ft 458 kts 160°
2026-05-05 15:34 43.39124 11.48201 34906 ft 460 kts 160°
2026-05-05 15:34 43.36307 11.50292 34651 ft 460 kts 160°
2026-05-05 15:35 43.33486 11.52381 34414 ft 461 kts 160°
2026-05-05 15:35 43.30667 11.54471 34172 ft 461 kts 160°
2026-05-05 15:35 43.27844 11.56562 33793 ft 462 kts 160°
2026-05-05 15:35 43.24999 11.58698 32704 ft 470 kts 156°
2026-05-05 15:36 43.22300 11.61305 31759 ft 482 kts 147°
2026-05-05 15:36 43.19889 11.64540 31126 ft 486 kts 136°
2026-05-05 15:36 43.17748 11.68131 30466 ft 485 kts 134°
2026-05-05 15:36 43.15636 11.71706 29793 ft 481 kts 134°
2026-05-05 15:37 43.13534 11.75244 29148 ft 475 kts 134°
2026-05-05 15:37 43.11489 11.78679 28532 ft 470 kts 134°
2026-05-05 15:37 43.09408 11.82173 27908 ft 465 kts 134°
2026-05-05 15:37 43.07375 11.85584 27284 ft 461 kts 134°
2026-05-05 15:38 43.05385 11.88925 26687 ft 457 kts 133°
2026-05-05 15:38 43.03356 11.92322 26087 ft 453 kts 133°
2026-05-05 15:38 43.01372 11.95638 25506 ft 450 kts 133°
2026-05-05 15:38 42.99423 11.98893 24938 ft 446 kts 133°
2026-05-05 15:39 42.97468 12.02155 24401 ft 441 kts 133°
2026-05-05 15:39 42.95509 12.05421 23868 ft 437 kts 133°
2026-05-05 15:39 42.93616 12.08572 23333 ft 433 kts 132°
2026-05-05 15:39 42.91716 12.11730 22835 ft 428 kts 133°
2026-05-05 15:40 42.89837 12.14852 22348 ft 423 kts 133°
2026-05-05 15:40 42.87983 12.17927 21880 ft 418 kts 133°
2026-05-05 15:40 42.86141 12.20982 21418 ft 415 kts 133°
2026-05-05 15:40 42.84321 12.23998 21142 ft 407 kts 133°
2026-05-05 15:41 42.82551 12.26933 21000 ft 395 kts 133°
2026-05-05 15:41 42.80802 12.29742 20878 ft 381 kts 138°
2026-05-05 15:41 42.78826 12.32011 20744 ft 364 kts 150°
2026-05-05 15:41 42.76686 12.33768 20442 ft 355 kts 154°
2026-05-05 15:42 42.74567 12.35458 20048 ft 352 kts 154°
2026-05-05 15:42 42.72458 12.37136 19637 ft 348 kts 154°
2026-05-05 15:42 42.70375 12.38796 19123 ft 345 kts 153°
2026-05-05 15:42 42.68309 12.40443 18606 ft 342 kts 154°
2026-05-05 15:43 42.66270 12.42068 17903 ft 339 kts 154°
2026-05-05 15:43 42.64243 12.43680 17219 ft 337 kts 154°
2026-05-05 15:43 42.62229 12.45279 16780 ft 333 kts 154°
2026-05-05 15:43 42.60233 12.46868 16406 ft 332 kts 154°
2026-05-05 15:44 42.58245 12.48444 16044 ft 330 kts 154°
2026-05-05 15:44 42.56269 12.50012 15642 ft 327 kts 154°
2026-05-05 15:44 42.54317 12.51563 14993 ft 324 kts 154°
2026-05-05 15:44 42.52405 12.53082 14403 ft 320 kts 154°
2026-05-05 15:45 42.50472 12.54618 13875 ft 315 kts 154°
2026-05-05 15:45 42.48615 12.56090 13404 ft 312 kts 154°
2026-05-05 15:45 42.46750 12.57562 12973 ft 310 kts 154°
2026-05-05 15:45 42.44878 12.59038 12547 ft 311 kts 154°
2026-05-05 15:46 42.43009 12.60513 12221 ft 309 kts 154°
2026-05-05 15:46 42.41106 12.61858 11856 ft 305 kts 163°
2026-05-05 15:46 42.39088 12.62557 11615 ft 297 kts 177°
2026-05-05 15:46 42.37055 12.62571 11203 ft 290 kts 191°
2026-05-05 15:47 42.35074 12.62144 10685 ft 286 kts 192°
2026-05-05 15:47 42.33772 12.61855 10268 ft 285 kts 192°
2026-05-05 15:47 42.31182 12.61284 9617 ft 280 kts 192°
2026-05-05 15:47 42.29270 12.60864 9213 ft 274 kts 192°
2026-05-05 15:48 42.27433 12.60465 9034 ft 263 kts 192°
2026-05-05 15:48 42.25656 12.60079 8900 ft 256 kts 192°
2026-05-05 15:48 42.23954 12.59457 8740 ft 253 kts 202°
2026-05-05 15:48 42.22306 12.58636 8380 ft 252 kts 202°
2026-05-05 15:49 42.20661 12.57818 7988 ft 252 kts 202°
2026-05-05 15:49 42.19042 12.57012 7594 ft 251 kts 202°
2026-05-05 15:49 42.17393 12.56193 7205 ft 253 kts 202°
2026-05-05 15:49 42.15746 12.55378 6809 ft 250 kts 202°
2026-05-05 15:50 42.14133 12.54581 6396 ft 245 kts 201°
2026-05-05 15:50 42.12545 12.53799 6114 ft 237 kts 202°
2026-05-05 15:50 42.11049 12.53059 6061 ft 224 kts 201°
2026-05-05 15:50 42.09600 12.52342 5967 ft 221 kts 201°
2026-05-05 15:51 42.08148 12.51625 5588 ft 225 kts 201°
2026-05-05 15:51 42.06668 12.50895 5170 ft 228 kts 201°
2026-05-05 15:51 42.05175 12.50156 4778 ft 230 kts 200°
2026-05-05 15:51 42.03670 12.49414 4390 ft 231 kts 200°
2026-05-05 15:52 42.02195 12.48690 4235 ft 220 kts 200°
2026-05-05 15:52 42.00788 12.47999 4104 ft 210 kts 200°
2026-05-05 15:52 41.99439 12.47377 3976 ft 200 kts 192°
2026-05-05 15:52 41.98085 12.47281 3849 ft 191 kts 173°
2026-05-05 15:53 41.97247 12.47552 3829 ft 183 kts 162°
2026-05-05 15:53 41.96130 12.48273 3683 ft 174 kts 155°
2026-05-05 15:53 41.95069 12.49011 3482 ft 170 kts 155°
2026-05-05 15:53 41.94023 12.49737 3272 ft 169 kts 155°
2026-05-05 15:54 41.92985 12.50457 3052 ft 168 kts 154°
2026-05-05 15:54 41.91949 12.51174 2820 ft 166 kts 154°
2026-05-05 15:54 41.90937 12.51876 2601 ft 160 kts 155°
2026-05-05 15:54 41.89983 12.52538 2387 ft 148 kts 154°
2026-05-05 15:55 41.89111 12.53140 2282 ft 136 kts 154°
2026-05-05 15:55 41.88284 12.53713 2064 ft 132 kts 154°
2026-05-05 15:55 41.87480 12.54274 1860 ft 129 kts 153°
2026-05-05 15:55 41.86684 12.54828 1687 ft 129 kts 153°
2026-05-05 15:56 41.85887 12.55386 1518 ft 130 kts 153°
2026-05-05 15:56 41.85063 12.55942 1363 ft 134 kts 153°
2026-05-05 15:56 41.84231 12.56507 1163 ft 133 kts 154°
2026-05-05 15:56 41.83416 12.57087 970 ft 132 kts 153°
2026-05-05 15:57 41.82598 12.57657 778 ft 134 kts 155°
2026-05-05 15:57 41.81776 12.58221 617 ft 131 kts 155°
2026-05-05 15:57 41.80985 12.58768 452 ft 126 kts 156°
2026-05-05 15:57 41.80338 12.59207 410 ft 94 kts 153°
2026-05-05 15:58 41.79986 12.59449 417 ft 39 kts 153°
2026-05-05 15:58 41.79767 12.59601 408 ft 33 kts 152°
2026-05-05 15:58 41.79661 12.59647 414 ft 9 kts 221°
2026-05-05 15:58 41.79620 12.59552 408 ft 5 kts 242°
2026-05-05 15:59 41.79618 12.59546 407 ft 2 kts 242°
2026-05-05 15:59 41.79613 12.59525 407 ft 3 kts 258°
2026-05-05 15:59 41.79654 12.59474 407 ft 13 kts 333°
2026-05-05 15:59 41.79728 12.59423 407 ft 11 kts 333°
2026-05-05 16:00 41.79806 12.59370 405 ft 15 kts 333°
2026-05-05 16:00 41.79897 12.59307 406 ft 15 kts 332°
2026-05-05 16:00 41.80008 12.59230 407 ft 17 kts 333°
2026-05-05 16:00 41.80102 12.59168 407 ft 13 kts 333°
2026-05-05 16:01 41.80176 12.59113 405 ft 11 kts 317°
2026-05-05 16:01 41.80159 12.59044 404 ft 6 kts 227°
2026-05-05 16:01 41.80138 12.59010 406 ft 4 kts 232°
2026-05-05 16:01 41.80125 12.58987 406 ft 3 kts 232°
2026-05-05 16:02 41.80100 12.58975 406 ft 6 kts 173°
2026-05-05 16:02 41.80077 12.59006 406 ft 3 kts 125°
2026-05-05 16:02 41.80069 12.59020 406 ft 0 kts 124°